Miscellaneous Local Product
Issued by NWS North Platte, NE

Home | Current Version | Previous Version | Text Only | Print | Product List | Glossary On
Versions: 1 2 3 4 5 6 7 8 9 10 11 12 13 14 15 16 17 18 19 20 21 22 23 24 25 26 27 28 29 30 31 32 33 34 35 36 37 38 39 40 41 42 43 44 45 46 47 48 49 50
000
AXUS43 KLBF 202210
MISLBF


WESTERN AND NORTH CENTRAL NEBRASKA HOURLY WEATHER ROUNDUP
NATIONAL WEATHER SERVICE NORTH PLATTE NE
500 PM CDT WED AUG 20 2014

***STATIONS NOT REPORTING VARIABLES SUCH AS SKY/WEATHER OR
PRESSURE ARE PROVIDED BY THE NEBRASKA DEPARTMENT OF
ROADS...RAWS...AND APRS NETWORKS...AND ARE NOT UNDER
NATIONAL WEATHER SERVICE QUALITY CONTROL***

...OBSERVATIONS IN AND NEAR THE EASTERN PANHANDLE OF NEBRASKA...

CITY           SKY/WX    TMP DP  RH WIND       PRES   REMARKS
PINE RIDGE     PTSUNNY   88  57  34 W6        29.74S
CHADRON        MOSUNNY   92  49  22 W13G21    29.73S
ALLIANCE       MOSUNNY   93  48  21 W17G28    29.80S
SIDNEY         PTSUNNY   89  47  23 NW13      29.85F THUNDER
WHITECLAY        N/A     89  55  31 W5          N/A
RUSHVILLE        N/A     95  49  20 W16         N/A  HX  92
GORDON           N/A    102  58  23 S14         N/A  HX 101
CRESCENT LAKE    N/A     90  48  23 W6G17       N/A
LISCO            N/A     93  45  18 SW9         N/A
BIG SPRINGS      N/A     89  61  38 SE5         N/A
$$

...OBSERVATIONS IN NORTH CENTRAL NEBRASKA...

CITY           SKY/WX    TMP DP  RH WIND       PRES   REMARKS
VALENTINE      SUNNY     92  58  31 S13       29.72F HX  91
THEDFORD       SUNNY     88  65  46 SW7       29.77F HX  90
AINSWORTH      MOSUNNY   86  66  51 S14       29.75R
O`NEILL        MOSUNNY   86  73  64 S15G22    29.75R HX  92
ORD            MOSUNNY   89  71  55 S14G26    29.73S HX  95
BROKEN BOW     MOSUNNY   93  69  45 S17G26    29.74F HX  98
BROWNLEE         N/A     94  65  38 S10         N/A  HX  97
SPRINGVIEW       N/A     88  71  57 SE5G13      N/A  HX  94
ROSE             N/A     90  73  58 SE15        N/A  HX  98
NEWPORT          N/A     85  72  65 S10         N/A  HX  90
SARGENT          N/A     89  73  58 S3          N/A  HX  96
COMSTOCK         N/A     95  75  52 S15         N/A  HX 106
CHAMBERS         N/A     87  74  65 S3G13       N/A  HX  95
EWING            N/A     86  77  74 S5G12       N/A  HX  97
$$

...OBSERVATIONS IN SOUTHWEST NEBRASKA AND FAR NORTHEAST COLORADO...

CITY           SKY/WX    TMP DP  RH WIND       PRES   REMARKS
WRAY             N/A     93  50  23 N6        29.82S HX  90
IMPERIAL       SUNNY     91  56  30 NW6       29.79F
OGALLALA       SUNNY     90  52  26 CALM      29.77F
NORTH PLATTE   SUNNY     91  68  46 W8        29.75F HX  95
MCCOOK         PTSUNNY   97  60  29 S8        29.73F HX  97
LEXINGTON      MOSUNNY   92  70  49 SE14      29.73S HX  97
PAXTON           N/A     89  66  46 SE3         N/A  HX  91
SUTHERLAND       N/A     94  63  35 E5          N/A  HX  95
BRADY            N/A     93  70  47 CALM        N/A  HX  99
GOTHENBURG       N/A     93  60  33 S6          N/A  HX  92
CALLAWAY         N/A     92  77  61 S12         N/A  HX 105
$$

...SOME WEATHER OBSERVATIONS FROM AROUND THE REGION...

CITY           SKY/WX    TMP DP  RH WIND       PRES   REMARKS
DENVER         PTSUNNY   85  49  28 VRB7      29.93F
LARAMIE        CLOUDY    66  42  41 W25G36    30.10R
CHEYENNE       MOSUNNY   80  44  27 W18G28    29.99R
SCOTTSBLUFF    MOSUNNY   92  48  22 W15       29.81F
RAPID CITY     CLOUDY    80  61  52 N22       29.72S
PIERRE         PTSUNNY   86  72  62 E12       29.65F HX  92
WINNER         FAIR      91  66  43 S14       29.69F HX  93
SIOUX FALLS    LGT RAIN  75  69  81 VRB6G21   29.76F
OMAHA          PTSUNNY   89  73  59 SE18      29.79S HX  97
GRAND ISLAND   MOSUNNY   90  73  57 SE17G24   29.75F HX  98
KANSAS CITY    MOSUNNY   92  70  48 S14G22    29.84F HX  97
WICHITA        MOSUNNY   94  67  41 S25G36    29.80F HX  97
HAYS           PTSUNNY   97  64  34 S23G29    29.74S HX  99
LIBERAL        MOSUNNY   99  57  25 S23G33    29.81S HX  97
GOODLAND       PTSUNNY   95  54  25 MISG      29.78F HX  93
$$



USA.gov is the U.S. government's official web portal to all federal, state and local government web resources and services.